Zurück zum Katalog

ONEWEB-0511

AktivKommunikationPO
NORAD 54129·PAYLOAD·🇬🇧 United Kingdom

Gestartet Oct 22, 2022 von Satish Dhawan Space Centre

Loading…

Nächste Überflüge (nächste 24 Stunden)

TLE

AktuellSource: CelesTrak SupGP

Epoche: Sep 14, 2026, 17:27 UTC

1 54129C 22138S   26257.72759676 -.00001470  00000+0 -36775-2 0  2578
2 54129  87.9105 287.1324 0002221  94.5741  16.5949 13.19723909    16

Verfolge ONEWEB-0511 in Echtzeit mit AllMySat

Download on the App Store